Location: Laan Hart van Zuid
(52.2563°N, 6.7904°E)
Time: 10:04:36
(UTC+02:00)

ISS - Pass Details

Date: 16 May 2024
Orbit: 411 x 419 km, 51.6° (Epoch: 29 May)

Event Time Altitude Azimuth Distance (km) Brightness Sun altitude
Rises 00:03:15 0° 273° (W) 2,374 0.4 -16.2°
Reaches altitude 10° 00:05:22 10° 273° (W) 1,506 -0.7 -16.3°
Maximum altitude 00:08:45 79° 187° (S) 433 -3.9 -16.5°
Enters shadow 00:10:25 27° 103° (ESE) 838 -2.6 -16.6°
